Time,TemperatureF,DewpointF,PressureIn,WindDirection,WindDirectionDegrees,WindSpeedMPH,WindSpeedGustMPH,Humidity,HourlyPrecipIn,Conditions,Clouds,dailyrainin,SoftwareType,DateUTC
2015-04-01 00:01:00,51.5,30.8,29.89,ENE,68,0.0,0.0,45,0.00,,,0.00,Wunderground v.1.15,2015-04-01 05:01:00,
2015-04-01 00:07:00,51.0,30.9,29.90,ESE,104,0.0,0.0,46,0.00,,,0.00,Wunderground v.1.15,2015-04-01 05:07:00,
2015-04-01 00:13:00,51.0,30.9,29.90,ESE,110,0.0,0.0,46,0.00,,,0.00,Wunderground v.1.15,2015-04-01 05:13:00,
2015-04-01 00:19:00,50.9,30.8,29.90,SE,135,0.0,0.0,46,0.00,,,0.00,Wunderground v.1.15,2015-04-01 05:19:00,
2015-04-01 00:24:00,50.8,30.7,29.89,ESE,104,0.0,0.0,46,0.00,,,0.00,Wunderground v.1.15,2015-04-01 05:24:00,
2015-04-01 00:30:00,50.6,30.6,29.90,ESE,113,0.0,0.0,46,0.00,,,0.00,Wunderground v.1.15,2015-04-01 05:30:00,
2015-04-01 00:36:00,50.4,30.9,29.89,SE,135,0.0,0.0,47,0.00,,,0.00,Wunderground v.1.15,2015-04-01 05:36:00,
2015-04-01 00:42:00,50.3,30.8,29.89,ESE,102,0.0,0.0,47,0.00,,,0.00,Wunderground v.1.15,2015-04-01 05:42:00,
2015-04-01 00:47:00,50.2,30.7,29.89,SE,139,0.0,0.0,47,0.00,,,0.00,Wunderground v.1.15,2015-04-01 05:47:00,
2015-04-01 00:53:00,50.3,30.8,29.89,ESE,113,0.0,0.0,47,0.00,,,0.00,Wunderground v.1.15,2015-04-01 05:53:00,
2015-04-01 00:59:00,50.3,30.3,29.88,ESE,102,0.0,0.0,46,0.00,,,0.00,Wunderground v.1.15,2015-04-01 05:59:00,
2015-04-01 01:04:00,50.2,30.2,29.88,ESE,114,0.0,0.0,46,0.00,,,0.00,Wunderground v.1.15,2015-04-01 06:04:00,
2015-04-01 01:10:00,50.0,30.5,29.88,SE,127,0.0,0.0,47,0.00,,,0.00,Wunderground v.1.15,2015-04-01 06:10:00,
2015-04-01 01:16:00,49.9,30.5,29.89,East,93,0.0,0.0,47,0.00,,,0.00,Wunderground v.1.15,2015-04-01 06:16:00,
2015-04-01 01:22:00,49.9,30.5,29.89,SE,136,0.0,0.0,47,0.00,,,0.00,Wunderground v.1.15,2015-04-01 06:22:00,
2015-04-01 01:27:00,49.7,30.3,29.89,ESE,103,0.0,0.0,47,0.00,,,0.00,Wunderground v.1.15,2015-04-01 06:27:00,
2015-04-01 01:33:00,49.5,30.6,29.89,ESE,120,0.0,0.0,48,0.00,,,0.00,Wunderground v.1.15,2015-04-01 06:33:00,
2015-04-01 01:39:00,49.5,30.6,29.88,SE,124,0.0,0.0,48,0.00,,,0.00,Wunderground v.1.15,2015-04-01 06:39:00,
2015-04-01 01:45:00,49.4,30.5,29.88,SE,141,0.0,0.0,48,0.00,,,0.00,Wunderground v.1.15,2015-04-01 06:45:00,
2015-04-01 01:50:00,49.3,30.4,29.88,SE,134,0.0,0.0,48,0.00,,,0.00,Wunderground v.1.15,2015-04-01 06:50:00,
2015-04-01 01:56:00,49.3,30.4,29.88,ESE,110,0.0,0.0,48,0.00,,,0.00,Wunderground v.1.15,2015-04-01 06:56:00,
2015-04-01 02:01:00,49.2,30.3,29.88,SE,124,0.0,0.0,48,0.00,,,0.00,Wunderground v.1.15,2015-04-01 07:01:00,
2015-04-01 02:06:00,49.2,30.8,29.88,ESE,112,0.0,0.0,49,0.00,,,0.00,Wunderground v.1.15,2015-04-01 07:06:00,
2015-04-01 02:11:00,49.2,30.8,29.87,SSE,164,0.0,0.0,49,0.00,,,0.00,Wunderground v.1.15,2015-04-01 07:11:00,
2015-04-01 02:16:00,49.2,30.8,29.87,SSE,154,0.0,0.0,49,0.00,,,0.00,Wunderground v.1.15,2015-04-01 07:16:00,
2015-04-01 02:21:00,49.2,30.8,29.87,ESE,104,0.0,0.0,49,0.00,,,0.00,Wunderground v.1.15,2015-04-01 07:21:00,
2015-04-01 02:26:00,49.3,30.9,29.87,SE,127,0.0,0.0,49,0.00,,,0.00,Wunderground v.1.15,2015-04-01 07:26:00,
2015-04-01 02:31:00,49.2,31.3,29.87,SE,141,0.0,0.0,50,0.00,,,0.00,Wunderground v.1.15,2015-04-01 07:31:00,
2015-04-01 02:36:00,49.1,31.2,29.86,SE,136,0.0,0.0,50,0.00,,,0.00,Wunderground v.1.15,2015-04-01 07:36:00,
2015-04-01 02:41:00,48.9,31.5,29.87,East,100,0.0,0.0,51,0.00,,,0.00,Wunderground v.1.15,2015-04-01 07:41:00,
2015-04-01 02:46:00,48.9,31.5,29.86,ESE,109,0.0,0.0,51,0.00,,,0.00,Wunderground v.1.15,2015-04-01 07:46:00,
2015-04-01 02:51:00,48.8,31.5,29.86,ESE,107,0.0,0.0,51,0.00,,,0.00,Wunderground v.1.15,2015-04-01 07:51:00,
2015-04-01 02:56:00,48.7,31.8,29.86,ESE,104,0.0,0.0,52,0.00,,,0.00,Wunderground v.1.15,2015-04-01 07:56:00,
2015-04-01 03:01:00,48.5,31.7,29.86,ESE,110,0.0,0.0,52,0.00,,,0.00,Wunderground v.1.15,2015-04-01 08:01:00,
2015-04-01 03:06:00,48.3,31.9,29.86,ESE,120,0.0,0.0,53,0.00,,,0.00,Wunderground v.1.15,2015-04-01 08:06:00,
2015-04-01 03:11:00,48.3,31.9,29.85,ESE,103,0.0,0.0,53,0.00,,,0.00,Wunderground v.1.15,2015-04-01 08:11:00,
2015-04-01 03:16:00,48.3,31.9,29.85,ESE,117,0.0,0.0,53,0.00,,,0.00,Wunderground v.1.15,2015-04-01 08:16:00,
2015-04-01 03:21:00,48.2,32.3,29.85,SE,127,0.0,1.0,54,0.00,,,0.00,Wunderground v.1.15,2015-04-01 08:21:00,
2015-04-01 03:26:00,48.1,32.2,29.85,East,97,0.0,1.0,54,0.00,,,0.00,Wunderground v.1.15,2015-04-01 08:26:00,
2015-04-01 03:31:00,48.1,32.2,29.85,SE,134,0.0,0.0,54,0.00,,,0.00,Wunderground v.1.15,2015-04-01 08:31:00,
2015-04-01 03:36:00,47.9,32.0,29.85,SE,132,0.0,0.0,54,0.00,,,0.00,Wunderground v.1.15,2015-04-01 08:36:00,
2015-04-01 03:41:00,47.7,32.3,29.84,ESE,113,0.0,0.0,55,0.00,,,0.00,Wunderground v.1.15,2015-04-01 08:41:00,
2015-04-01 03:46:00,47.7,32.3,29.84,SE,134,0.0,0.0,55,0.00,,,0.00,Wunderground v.1.15,2015-04-01 08:46:00,
2015-04-01 03:51:00,47.7,32.8,29.84,ESE,123,0.0,0.0,56,0.00,,,0.00,Wunderground v.1.15,2015-04-01 08:51:00,
2015-04-01 03:56:00,47.7,32.8,29.83,SE,133,0.0,0.0,56,0.00,,,0.00,Wunderground v.1.15,2015-04-01 08:56:00,
2015-04-01 04:01:00,47.6,32.7,29.83,ESE,104,0.0,0.0,56,0.00,,,0.00,Wunderground v.1.15,2015-04-01 09:01:00,
2015-04-01 04:07:00,47.6,33.1,29.83,ESE,117,0.0,0.0,57,0.00,,,0.00,Wunderground v.1.15,2015-04-01 09:07:00,
2015-04-01 04:11:00,47.6,33.1,29.83,ESE,107,0.0,0.0,57,0.00,,,0.00,Wunderground v.1.15,2015-04-01 09:11:00,
2015-04-01 04:16:00,47.6,33.1,29.83,ESE,110,0.0,0.0,57,0.00,,,0.00,Wunderground v.1.15,2015-04-01 09:16:00,
2015-04-01 04:22:00,47.5,33.4,29.82,ESE,117,0.0,0.0,58,0.00,,,0.00,Wunderground v.1.15,2015-04-01 09:22:00,
2015-04-01 04:27:00,47.5,33.4,29.83,ESE,110,0.0,0.0,58,0.00,,,0.00,Wunderground v.1.15,2015-04-01 09:27:00,
2015-04-01 04:32:00,47.3,33.3,29.82,ESE,110,0.0,0.0,58,0.00,,,0.00,Wunderground v.1.15,2015-04-01 09:32:00,
2015-04-01 04:37:00,47.2,33.6,29.82,ESE,120,0.0,0.0,59,0.00,,,0.00,Wunderground v.1.15,2015-04-01 09:37:00,
2015-04-01 04:42:00,47.1,33.5,29.82,East,79,0.0,0.0,59,0.00,,,0.00,Wunderground v.1.15,2015-04-01 09:42:00,
2015-04-01 04:47:00,46.7,33.1,29.82,East,98,0.0,0.0,59,0.00,,,0.00,Wunderground v.1.15,2015-04-01 09:47:00,
2015-04-01 04:52:00,46.2,33.1,29.82,East,97,0.0,0.0,60,0.00,,,0.00,Wunderground v.1.15,2015-04-01 09:52:00,
2015-04-01 04:57:00,45.9,33.2,29.81,SE,126,0.0,1.0,61,0.00,,,0.00,Wunderground v.1.15,2015-04-01 09:57:00,
2015-04-01 05:02:00,45.9,33.2,29.81,ESE,112,0.0,0.0,61,0.00,,,0.00,Wunderground v.1.15,2015-04-01 10:02:00,
2015-04-01 05:07:00,45.9,33.2,29.81,ESE,110,0.0,0.0,61,0.00,,,0.00,Wunderground v.1.15,2015-04-01 10:07:00,
2015-04-01 05:12:00,46.1,33.0,29.81,ESE,119,0.0,0.0,60,0.00,,,0.00,Wunderground v.1.15,2015-04-01 10:12:00,
2015-04-01 05:17:00,46.1,33.4,29.80,ESE,110,0.0,0.0,61,0.00,,,0.00,Wunderground v.1.15,2015-04-01 10:17:00,
2015-04-01 05:22:00,46.1,33.4,29.80,ESE,117,0.0,0.0,61,0.00,,,0.00,Wunderground v.1.15,2015-04-01 10:22:00,
2015-04-01 05:27:00,46.1,33.4,29.80,ESE,123,0.0,0.0,61,0.00,,,0.00,Wunderground v.1.15,2015-04-01 10:27:00,
2015-04-01 05:32:00,46.1,33.4,29.80,ESE,123,0.0,0.0,61,0.00,,,0.00,Wunderground v.1.15,2015-04-01 10:32:00,
2015-04-01 05:37:00,46.0,33.3,29.80,ESE,104,0.0,0.0,61,0.00,,,0.00,Wunderground v.1.15,2015-04-01 10:37:00,
2015-04-01 05:42:00,46.0,33.7,29.80,SE,130,0.0,0.0,62,0.00,,,0.00,Wunderground v.1.15,2015-04-01 10:42:00,
2015-04-01 05:47:00,45.9,33.6,29.80,SE,124,0.0,0.0,62,0.00,,,0.00,Wunderground v.1.15,2015-04-01 10:47:00,
2015-04-01 05:52:00,45.9,33.6,29.80,ESE,109,0.0,0.0,62,0.00,,,0.00,Wunderground v.1.15,2015-04-01 10:52:00,
2015-04-01 05:57:00,45.9,34.0,29.79,SE,142,0.0,0.0,63,0.00,,,0.00,Wunderground v.1.15,2015-04-01 10:57:00,
2015-04-01 06:02:00,45.9,34.0,29.79,ESE,120,0.0,0.0,63,0.00,,,0.00,Wunderground v.1.15,2015-04-01 11:02:00,
2015-04-01 06:07:00,45.9,34.4,29.79,SE,128,0.0,0.0,64,0.00,,,0.00,Wunderground v.1.15,2015-04-01 11:07:00,
2015-04-01 06:12:00,46.0,34.5,29.79,SSE,161,0.0,0.0,64,0.00,,,0.00,Wunderground v.1.15,2015-04-01 11:12:00,
2015-04-01 06:17:00,46.1,34.6,29.78,SSE,150,0.0,0.0,64,0.00,,,0.00,Wunderground v.1.15,2015-04-01 11:17:00,
2015-04-01 06:22:00,46.2,34.7,29.78,ESE,107,0.0,0.0,64,0.00,,,0.00,Wunderground v.1.15,2015-04-01 11:22:00,
2015-04-01 06:27:00,46.2,34.7,29.78,ESE,121,0.0,0.0,64,0.00,,,0.00,Wunderground v.1.15,2015-04-01 11:27:00,
2015-04-01 06:32:00,46.3,34.8,29.78,SE,143,0.0,0.0,64,0.00,,,0.00,Wunderground v.1.15,2015-04-01 11:32:00,
2015-04-01 06:37:00,46.3,34.8,29.78,SE,142,0.0,0.0,64,0.00,,,0.00,Wunderground v.1.15,2015-04-01 11:37:00,
2015-04-01 06:42:00,46.3,34.8,29.78,SSE,157,0.0,1.0,64,0.00,,,0.00,Wunderground v.1.15,2015-04-01 11:42:00,
2015-04-01 06:47:00,46.3,34.8,29.78,SSE,164,0.0,1.0,64,0.00,,,0.00,Wunderground v.1.15,2015-04-01 11:47:00,
2015-04-01 06:52:00,46.2,34.7,29.78,SE,140,0.0,0.0,64,0.00,,,0.00,Wunderground v.1.15,2015-04-01 11:52:00,
2015-04-01 06:57:00,46.1,35.0,29.78,SE,138,0.0,0.0,65,0.00,,,0.00,Wunderground v.1.15,2015-04-01 11:57:00,
2015-04-01 07:03:00,46.1,35.0,29.78,ESE,120,0.0,0.0,65,0.00,,,0.00,Wunderground v.1.15,2015-04-01 12:03:00,
2015-04-01 07:08:00,46.1,35.0,29.78,ESE,123,0.0,0.0,65,0.00,,,0.00,Wunderground v.1.15,2015-04-01 12:08:00,
2015-04-01 07:13:00,46.1,35.0,29.78,SSE,151,0.0,0.0,65,0.00,,,0.00,Wunderground v.1.15,2015-04-01 12:13:00,
2015-04-01 07:18:00,46.2,35.1,29.78,SE,137,0.0,0.0,65,0.00,,,0.00,Wunderground v.1.15,2015-04-01 12:18:00,
2015-04-01 07:23:00,46.4,35.3,29.78,South,170,0.0,0.0,65,0.00,,,0.00,Wunderground v.1.15,2015-04-01 12:23:00,
2015-04-01 07:28:00,46.6,35.5,29.78,SE,133,0.0,0.0,65,0.00,,,0.00,Wunderground v.1.15,2015-04-01 12:28:00,
2015-04-01 07:33:00,46.7,35.2,29.78,SE,138,0.0,0.0,64,0.00,,,0.00,Wunderground v.1.15,2015-04-01 12:33:00,
2015-04-01 07:38:00,46.8,35.3,29.78,SE,129,0.0,0.0,64,0.00,,,0.00,Wunderground v.1.15,2015-04-01 12:38:00,
2015-04-01 07:43:00,46.9,35.4,29.77,SSE,157,0.0,0.0,64,0.00,,,0.00,Wunderground v.1.15,2015-04-01 12:43:00,
2015-04-01 07:48:00,46.9,35.7,29.77,SE,140,0.0,0.0,65,0.00,,,0.00,Wunderground v.1.15,2015-04-01 12:48:00,
2015-04-01 07:53:00,46.9,35.7,29.77,SSE,148,0.0,0.0,65,0.00,,,0.00,Wunderground v.1.15,2015-04-01 12:53:00,
2015-04-01 07:58:00,47.0,35.8,29.77,ESE,123,0.0,0.0,65,0.00,,,0.00,Wunderground v.1.15,2015-04-01 12:58:00,
2015-04-01 08:03:00,47.1,35.9,29.77,SE,130,0.0,0.0,65,0.00,,,0.00,Wunderground v.1.15,2015-04-01 13:03:00,
2015-04-01 08:08:00,47.4,35.8,29.77,SE,133,0.0,0.0,64,0.00,,,0.00,Wunderground v.1.15,2015-04-01 13:08:00,
2015-04-01 08:13:00,47.8,36.2,29.77,SE,124,0.0,0.0,64,0.00,,,0.00,Wunderground v.1.15,2015-04-01 13:13:00,
2015-04-01 08:18:00,48.3,36.3,29.77,South,190,0.0,0.0,63,0.00,,,0.00,Wunderground v.1.15,2015-04-01 13:18:00,
2015-04-01 08:23:00,48.7,36.7,29.77,SSE,158,0.0,0.0,63,0.00,,,0.00,Wunderground v.1.15,2015-04-01 13:23:00,
2015-04-01 08:28:00,49.4,36.9,29.77,ESE,121,0.0,0.0,62,0.00,,,0.00,Wunderground v.1.15,2015-04-01 13:28:00,
2015-04-01 08:33:00,50.0,37.1,29.76,SSE,148,0.0,0.0,61,0.00,,,0.00,Wunderground v.1.15,2015-04-01 13:33:00,
2015-04-01 08:38:00,50.5,37.1,29.76,SE,135,0.0,0.0,60,0.00,,,0.00,Wunderground v.1.15,2015-04-01 13:38:00,
2015-04-01 08:43:00,50.8,37.0,29.75,ESE,106,0.0,0.0,59,0.00,,,0.00,Wunderground v.1.15,2015-04-01 13:43:00,
2015-04-01 08:48:00,51.6,37.3,29.74,SSE,166,0.0,1.0,58,0.00,,,0.00,Wunderground v.1.15,2015-04-01 13:48:00,
2015-04-01 08:53:00,52.7,37.4,29.74,SSE,151,0.0,0.0,56,0.00,,,0.00,Wunderground v.1.15,2015-04-01 13:53:00,
2015-04-01 08:58:00,53.6,38.3,29.74,SSE,161,0.0,0.0,56,0.00,,,0.00,Wunderground v.1.15,2015-04-01 13:58:00,
2015-04-01 09:03:00,54.3,38.0,29.74,SSE,168,0.0,1.0,54,0.00,,,0.00,Wunderground v.1.15,2015-04-01 14:03:00,
2015-04-01 09:08:00,54.8,38.0,29.74,SSE,166,9.0,10.0,53,0.00,,,0.00,Wunderground v.1.15,2015-04-01 14:08:00,
2015-04-01 09:14:00,55.4,37.6,29.74,ESE,107,6.0,12.0,51,0.00,,,0.00,Wunderground v.1.15,2015-04-01 14:14:00,
2015-04-01 09:19:00,56.0,38.1,29.73,SSE,164,6.0,12.0,51,0.00,,,0.00,Wunderground v.1.15,2015-04-01 14:19:00,
2015-04-01 09:23:00,56.7,38.3,29.73,SE,127,0.0,10.0,50,0.00,,,0.00,Wunderground v.1.15,2015-04-01 14:23:00,
2015-04-01 09:28:00,57.5,37.9,29.73,SSW,208,0.0,11.0,48,0.00,,,0.00,Wunderground v.1.15,2015-04-01 14:28:00,
2015-04-01 09:33:00,58.2,38.6,29.73,SSE,165,0.0,3.0,48,0.00,,,0.00,Wunderground v.1.15,2015-04-01 14:33:00,
2015-04-01 09:39:00,58.5,37.8,29.72,SSW,205,1.0,3.0,46,0.00,,,0.00,Wunderground v.1.15,2015-04-01 14:39:00,
2015-04-01 09:44:00,58.7,38.0,29.72,SW,218,0.0,1.0,46,0.00,,,0.00,Wunderground v.1.15,2015-04-01 14:44:00,
2015-04-01 09:49:00,58.7,38.5,29.72,SSW,202,0.0,1.0,47,0.00,,,0.00,Wunderground v.1.15,2015-04-01 14:49:00,
2015-04-01 09:54:00,58.8,38.6,29.72,SSW,204,0.0,2.0,47,0.00,,,0.00,Wunderground v.1.15,2015-04-01 14:54:00,
2015-04-01 09:59:00,59.2,39.0,29.71,SSE,161,1.0,5.0,47,0.00,,,0.00,Wunderground v.1.15,2015-04-01 14:59:00,
2015-04-01 10:04:00,59.9,38.5,29.71,South,187,8.0,13.0,45,0.00,,,0.00,Wunderground v.1.15,2015-04-01 15:04:00,
2015-04-01 10:09:00,60.5,39.0,29.71,SW,232,4.0,17.0,45,0.00,,,0.00,Wunderground v.1.15,2015-04-01 15:09:00,
2015-04-01 10:14:00,60.7,38.6,29.71,South,187,13.0,18.0,44,0.00,,,0.00,Wunderground v.1.15,2015-04-01 15:14:00,
2015-04-01 10:19:00,60.9,38.8,29.70,SSE,149,7.0,18.0,44,0.00,,,0.00,Wunderground v.1.15,2015-04-01 15:19:00,
2015-04-01 10:24:00,61.1,39.6,29.70,SSW,208,9.0,14.0,45,0.00,,,0.00,Wunderground v.1.15,2015-04-01 15:24:00,
2015-04-01 10:29:00,61.7,39.6,29.69,SSW,204,12.0,17.0,44,0.00,,,0.00,Wunderground v.1.15,2015-04-01 15:29:00,
2015-04-01 10:34:00,61.9,39.1,29.69,South,185,15.0,18.0,43,0.00,,,0.00,Wunderground v.1.15,2015-04-01 15:34:00,
2015-04-01 10:39:00,61.9,39.7,29.69,SE,146,12.0,18.0,44,0.00,,,0.00,Wunderground v.1.15,2015-04-01 15:39:00,
2015-04-01 10:44:00,61.9,39.1,29.68,SSE,161,7.0,18.0,43,0.00,,,0.00,Wunderground v.1.15,2015-04-01 15:44:00,
2015-04-01 10:49:00,61.8,39.6,29.68,SSW,198,17.0,18.0,44,0.00,,,0.00,Wunderground v.1.15,2015-04-01 15:49:00,
2015-04-01 10:54:00,62.4,40.2,29.68,West,278,0.0,18.0,44,0.00,,,0.00,Wunderground v.1.15,2015-04-01 15:54:00,
2015-04-01 10:59:00,63.0,40.1,29.68,ESE,102,0.0,18.0,43,0.00,,,0.00,Wunderground v.1.15,2015-04-01 15:59:00,
2015-04-01 11:04:00,63.4,39.9,29.67,SSW,206,15.0,15.0,42,0.00,,,0.00,Wunderground v.1.15,2015-04-01 16:04:00,
2015-04-01 11:09:00,63.9,40.3,29.67,SSW,209,0.0,17.0,42,0.00,,,0.00,Wunderground v.1.15,2015-04-01 16:09:00,
2015-04-01 11:14:00,64.4,40.8,29.66,ESE,106,0.0,17.0,42,0.00,,,0.00,Wunderground v.1.15,2015-04-01 16:14:00,
2015-04-01 11:19:00,64.6,40.4,29.65,South,189,14.0,17.0,41,0.00,,,0.00,Wunderground v.1.15,2015-04-01 16:19:00,
2015-04-01 11:24:00,64.8,40.5,29.65,SSE,159,0.0,30.0,41,0.00,,,0.00,Wunderground v.1.15,2015-04-01 16:24:00,
2015-04-01 11:29:00,64.8,40.5,29.63,SW,230,0.0,30.0,41,0.00,,,0.00,Wunderground v.1.15,2015-04-01 16:29:00,
2015-04-01 11:34:00,64.8,40.5,29.63,SSE,167,12.0,17.0,41,0.00,,,0.00,Wunderground v.1.15,2015-04-01 16:34:00,
2015-04-01 11:39:00,65.0,40.7,29.63,SW,218,0.0,17.0,41,0.00,,,0.00,Wunderground v.1.15,2015-04-01 16:39:00,
2015-04-01 11:45:00,65.5,39.9,29.63,SSW,195,14.0,23.0,39,0.00,,,0.00,Wunderground v.1.15,2015-04-01 16:45:00,
2015-04-01 11:50:00,66.1,40.4,29.63,SW,231,3.0,17.0,39,0.00,,,0.00,Wunderground v.1.15,2015-04-01 16:50:00,
2015-04-01 11:55:00,66.4,40.0,29.62,SSW,208,18.0,28.0,38,0.00,,,0.00,Wunderground v.1.15,2015-04-01 16:55:00,
2015-04-01 12:00:00,66.9,40.5,29.61,SSW,192,23.0,28.0,38,0.00,,,0.00,Wunderground v.1.15,2015-04-01 17:00:00,
2015-04-01 12:05:00,67.3,40.8,29.61,SSW,192,12.0,28.0,38,0.00,,,0.00,Wunderground v.1.15,2015-04-01 17:05:00,
2015-04-01 12:10:00,68.0,40.0,29.61,SSW,192,18.0,18.0,36,0.00,,,0.00,Wunderground v.1.15,2015-04-01 17:10:00,
2015-04-01 12:15:00,68.3,40.3,29.62,SSW,201,14.0,24.0,36,0.00,,,0.00,Wunderground v.1.15,2015-04-01 17:15:00,
2015-04-01 12:20:00,68.7,40.7,29.61,SSE,161,14.0,19.0,36,0.00,,,0.00,Wunderground v.1.15,2015-04-01 17:20:00,
2015-04-01 12:25:00,69.2,41.1,29.60,WSW,244,0.0,26.0,36,0.00,,,0.00,Wunderground v.1.15,2015-04-01 17:25:00,